Regional Weather Roundup
Issued by NWS

Home | Current Version | Previous Version | Text Only | Print | Product List | Glossary Off
Versions: 1 2 3 4 5 6 7 8 9 10 11 12 13 14 15 16 17 18 19 20 21 22 23 24 25 26 27 28 29 30 31 32 33 34 35 36 37 38 39 40 41 42 43 44 45 46 47 48 49 50

000
ASUS43 KLOT 210108
RWRIL

ILLINOIS REGIONAL WEATHER ROUNDUP
NATIONAL WEATHER SERVICE CHICAGO/ROMEOVILLE IL
700 PM CST TUE FEB 20 2018

NOTE: "FAIR" INDICATES FEW OR NO CLOUDS BELOW 12,000 FEET WITH NO
SIGNIFICANT WEATHER AND/OR OBSTRUCTIONS TO VISIBILITY.

* THESE STATIONS ARE NOT UNDER NWS QUALITY CONTROL. THEY ALSO MAY NOT
  REPORT WEATHER SUCH AS PRECIPITATION OR FOG.

ILZ001-002-007-009-015-016-024-210200-
NORTHWEST ILLINOIS

CITY           SKY/WX    TMP DP  RH WIND       PRES   REMARKS
MOLINE         CLOUDY    30  24  78 NW16G24   30.14R WCI  19
STERLING*        N/A    N/A N/A N/A MISG        N/A
SAVANNA*       CLOUDY    30  25  81 W14       30.13R WCI  19
$$

ILZ003-004-008-010-011-017-018-210200-
NORTH CENTRAL ILLINOIS

CITY           SKY/WX    TMP DP  RH WIND       PRES   REMARKS
ROCKFORD       CLOUDY    32  29  88 NW16      30.09R WCI  21
FREEPORT*      CLOUDY    31  27  87 NW17G24   30.09S WCI  19
ROCHELLE*      RAIN      32  31  96 W13       30.09R WCI  22
DE KALB*       MIX PCPN  33  33  99 NW14      30.07R WCI  23
PERU*          DRIZZLE   32  30  93 NW15      30.10R WCI  22
$$

ILZ005-006-012>014-019>023-210200-
NORTHEAST ILLINOIS

CITY           SKY/WX    TMP DP  RH WIND       PRES   REMARKS
CHICAGO-OHARE  LGT RAIN  38  35  89 W10       30.05R WCI  31
CHICAGO-MIDWAY LGT RAIN  41  40  96 W14       30.05R
AURORA         LGT RAIN  36  35  96 W9        30.05R FOG     WCI  29
LANSING*       LGT RAIN  44  43  99 W12G23    30.04R
JOLIET*        LGT RAIN  38  37  96 NW8       30.06F WCI  32
WAUKEGAN       LGT RAIN  36  35  96 W6        30.02R WCI  31
DUPAGE AIRPORT LGT RAIN  35  34  96 NW8       30.04R WCI  29
KANKAKEE*      LGT RAIN  40  39  99 NW15G22   30.07R
WHEELING       LGT RAIN  38  36  92 W10       30.05R WCI  31
MORRIS*        RAIN      36  34  93 NW9       30.05F WCI  29
ROMEOVILLE*    LGT RAIN  37  36  95 NW13      30.06R WCI  29
NORTHERLY ISL    N/A     41  37  86 W16         N/A
$$

LMZ740>746-210200-
SOUTHERN LAKE MICHIGAN

STATION/POSITION SKY/WX   TEMP    WIND        PRES    VSBY  WAVE
                          AIR SEA DIR/SP/G                  HT/PER
                          (F)     (DEG/KT/KT) (MB)    (MI)  (FT/S)
HARRISON CRIB              47     280/ 17/ 18   N/A
BURNHAM HARBOR             40     270/  8/ 17   N/A
CALUMET HARBOR             44     250/ 10/ 17 1016.8R
MICHIGAN CITY              54     210/ 10/ 10   N/A
$$

ILZ025>027-034>036-040-047-049-050-058-095>099-210200-
WEST-CENTRAL ILLINOIS

CITY           SKY/WX    TMP DP  RH WIND       PRES   REMARKS
QUINCY         FRZ RAIN  31  29  92 NW14      30.16R FOG     WCI  21
GALESBURG*     MIX PCPN  31  29  94 W15G21    30.16R WCI  20
MACOMB*        MIX PCPN  31  30  95 NW13      30.16R WCI  21
JACKSONVILLE*  LGT RAIN  34  33  95 NW13      30.11S WCI  25
PITTSFIELD*    LGT RAIN  33  32  95 N12       30.14R WCI  25
$$

ILZ028>032-037-038-041>044-048-051>054-059>061-210200-
CENTRAL ILLINOIS

CITY           SKY/WX    TMP DP  RH WIND       PRES   REMARKS
PONTIAC        DRIZZLE   37  37  99 NW15G22   30.10R WCI  28
BLOOMINGTON    RAIN      38  36  92 NW18      30.09  WCI  28
DECATUR        RAIN      41  41 100 NW16      30.05R FOG
PEORIA         LGT RAIN  34  31  88 NW6G17    30.12R WCI  29
LACON*         RAIN      33  32  98 NW13G18   30.11R WCI  23
LINCOLN*       RAIN      38  38  99 NW12G18   30.09S WCI  30
SPRINGFIELD    RAIN      38  36  92 NW17      30.09S WCI  28
TAYLORVILLE    MIX PCPN  39  38  97 N20       30.07R WCI  29
$$

ILZ033-039-045-046-055>057-062-063-210200-
EAST-CENTRAL ILLINOIS

CITY           SKY/WX    TMP DP  RH WIND       PRES   REMARKS
CHAMPAIGN      HVY RAIN  50  49  96 NW12      30.04R FOG
DANVILLE*      HVY RAIN  57  57  98 W10       30.01R
RANTOUL*       HVY RAIN  46  46 100 NW14      30.04R
MATTOON        LGT RAIN  57  55  93 N7        30.01R
PARIS*         CLOUDY    68  59  73 S17G25    30.01S
$$

ILZ079-100>102-210200-
SOUTHWEST ILLINOIS

CITY           SKY/WX    TMP DP  RH WIND       PRES   REMARKS
ALTON          RAIN      39  39 100 N13G24    30.06R WCI  32
BELLEVILLE     LGT RAIN  49  47  91 N14       30.02R
CAHOKIA*       LGT RAIN  44  42  93 N15         N/A
SPARTA*        CLOUDY    70  64  81 S12       29.99S
$$

ILZ064>066-069>071-074>076-080>082-084>086-088>090-092>094-210200-
SOUTH-CENTRAL ILLINOIS

CITY           SKY/WX    TMP DP  RH WIND       PRES   REMARKS
CARBONDALE     MOCLDY    71  61  70 S14G23    30.00F
CAIRO*         MOCLDY    71  61  72 S14       30.04S
EFFINGHAM*     CLOUDY    70  60  70 S9G17     30.02R
MARION         CLOUDY    70  59  68 S12       30.03F
MT. VERNON     MOCLDY    69  59  70 S10       30.01F
CENTRALIA*     FAIR      70  61  74 S13       29.98S
SALEM*         FAIR      70  59  69 S12       29.99S
METROPOLIS*    CLOUDY    73  60  65 S9        30.06S
$$

ILZ067-068-072-073-078-083-087-091-210200-
SOUTHEAST ILLINOIS

CITY           SKY/WX    TMP DP  RH WIND       PRES   REMARKS
LAWRENCEVILLE  CLOUDY    68  57  68 S13       30.05S
FLORA*         MOCLDY    69  60  73 S10       30.02S
FAIRFIELD*     CLOUDY    68  59  72 S5        30.02F
HARRISBURG*    CLOUDY    70  61  72 S9        30.04F
ROBINSON*      FAIR      67  56  68 S12       30.04S
CARMI*         MOCLDY    67  59  75 S13       30.04F
$$

ABBREVIATIONS USED IN REMARKS
   TC - TEMPERATURE IN CELSIUS
  WCI - WIND CHILL INDEX
   HX - HEAT INDEX
  VSB - VISIBILITY
$$




USA.gov is the U.S. government's official web portal to all federal, state and local government web resources and services.